Waarnemingen

Advertentie
Mijn weer
Europlatform, Nederland (6321): temperatuur & dauwpunt: 11.08.2018 13:00:00 - 17.08.2018 13:00:00 (CEST)Europlatform, Nederland (6321): water temperatuur: 11.08.2018 13:00:00 - 17.08.2018 13:00:00 (CEST)Europlatform, Nederland (6321): windsnelheid & windstoten: 11.08.2018 13:00:00 - 17.08.2018 13:00:00 (CEST)Europlatform, Nederland (6321): windrichting: 11.08.2018 13:00:00 - 17.08.2018 13:00:00 (CEST)Europlatform, Nederland (6321): luchtdruk: 11.08.2018 13:00:00 - 17.08.2018 13:00:00 (CEST)Europlatform, Nederland (6321): zicht: 11.08.2018 13:00:00 - 17.08.2018 13:00:00 (CEST)
Datum & Tijd tt [°C] td [°C] tw [°C] ff [km/u] ff [kn] fx [km/u] fx [kn] dd ppp [hPa] vv [km]
17.08.2018 13:00:00 18,7 12,2 19,1 16 9 22 12 W 1019,8 -
17.08.2018 12:00:00 19,0 11,7 19,0 16 9 22 12 W 1019,5 -
17.08.2018 11:00:00 19,0 12,6 19,0 16 9 22 12 WNW 1019,3 49
17.08.2018 10:00:00 19,2 13,2 19,1 16 9 22 12 WNW 1018,6 50
17.08.2018 09:00:00 19,3 12,2 19,0 16 9 18 10 NW 1018,0 50
17.08.2018 08:00:00 18,7 12,7 19,0 16 9 22 12 NW 1017,6 50
17.08.2018 07:00:00 18,1 12,6 19,0 21 11 25 14 NW 1016,9 50
17.08.2018 06:00:00 18,0 13,5 19,1 21 11 25 14 NW 1016,3 50
17.08.2018 05:00:00 18,3 13,8 19,1 21 11 25 14 WNW 1016,2 49
17.08.2018 04:00:00 18,4 14,3 19,1 22 12 25 14 W 1016,0 48
17.08.2018 03:00:00 18,3 13,4 19,1 24 13 25 14 W 1015,8 50
17.08.2018 02:00:00 18,2 12,4 19,1 22 12 25 14 W 1015,6 -
17.08.2018 01:00:00 18,2 12,0 19,1 16 9 22 12 W 1015,8 -
17.08.2018 00:00:00 18,1 12,3 19,1 22 12 29 16 W 1015,5 50
16.08.2018 23:00:00 18,2 11,9 19,1 26 14 32 18 WZW 1015,2 50
16.08.2018 22:00:00 18,3 12,9 19,1 31 17 40 21 WZW 1015,2 50
16.08.2018 21:00:00 18,0 15,0 19,1 37 20 43 23 ZW 1015,0 13
16.08.2018 20:00:00 18,2 15,4 19,0 15 8 22 12 ZZW 1014,4 41
16.08.2018 19:00:00 17,9 15,9 19,1 11 6 22 12 O 1014,4 50
16.08.2018 18:00:00 16,8 15,5 19,1 24 13 36 19 NNW 1014,4 10
16.08.2018 17:00:00 17,1 15,1 19,1 9 5 22 12 N 1014,6 46
16.08.2018 16:00:00 16,5 14,4 19,1 26 14 47 25 NW 1014,8 49
16.08.2018 15:00:00 19,6 15,5 19,1 44 24 47 25 ZW 1014,8 48
16.08.2018 14:00:00 19,5 15,9 19,1 44 24 50 27 ZZW 1014,7 45
16.08.2018 13:00:00 19,3 15,4 19,1 39 21 50 27 ZZW 1014,4 50
16.08.2018 12:00:00 19,0 16,0 19,1 44 24 50 27 ZZW 1014,5 48
16.08.2018 11:00:00 18,7 15,9 19,1 42 23 50 27 ZZW 1014,6 40
16.08.2018 10:00:00 18,7 15,5 19,1 52 28 58 31 ZW 1014,8 49
16.08.2018 09:00:00 18,7 16,0 19,1 46 25 47 25 ZZW 1014,5 49
16.08.2018 08:00:00 18,8 16,5 19,1 44 24 43 23 ZZW 1014,6 47
16.08.2018 07:00:00 18,8 16,3 19,1 42 23 47 25 ZZW 1014,8 42
16.08.2018 06:00:00 18,7 16,0 19,1 42 23 47 25 ZZW 1015,0 38
16.08.2018 05:00:00 18,7 15,9 19,1 42 23 47 25 ZW 1015,2 37
16.08.2018 04:00:00 18,6 15,6 19,1 44 24 50 27 ZW 1015,3 40
16.08.2018 03:00:00 18,6 16,0 19,2 44 24 47 25 ZW 1015,7 38
16.08.2018 02:00:00 18,8 16,1 19,2 41 22 47 25 ZZW 1016,1 42
16.08.2018 01:00:00 18,9 16,1 19,2 44 24 47 25 ZZW 1016,5 39
16.08.2018 00:00:00 19,2 15,5 19,1 46 25 47 25 ZZW 1016,8 45
15.08.2018 23:00:00 19,2 15,3 19,1 48 26 50 27 ZZW 1017,2 50
15.08.2018 22:00:00 19,3 15,2 19,1 50 27 54 29 ZZW 1017,2 50
15.08.2018 21:00:00 19,4 15,7 19,1 41 22 43 23 ZZW 1017,2 50
15.08.2018 20:00:00 19,3 15,4 19,1 39 21 43 23 ZZW 1017,3 45
15.08.2018 19:00:00 19,2 16,1 19,1 39 21 40 21 ZZW 1017,6 41
15.08.2018 18:00:00 19,2 15,5 19,1 37 20 36 19 ZZW 1017,9 44
15.08.2018 17:00:00 18,9 15,3 19,1 35 19 36 19 ZZW 1018,1 47
15.08.2018 16:00:00 18,4 14,7 19,1 34 18 40 21 ZW 1018,5 49
15.08.2018 15:00:00 18,5 14,5 19,2 34 18 40 21 ZZW 1018,7 50
15.08.2018 14:00:00 18,5 14,9 19,2 31 17 40 21 ZW 1018,8 46
15.08.2018 13:00:00 18,5 14,9 19,2 29 16 36 19 ZW 1018,5 45
15.08.2018 12:00:00 18,3 14,8 19,1 29 16 32 18 ZW 1018,4 41
15.08.2018 11:00:00 18,4 15,6 19,1 29 16 32 18 ZW 1018,4 39
15.08.2018 10:00:00 18,6 15,2 19,1 29 16 32 18 ZW 1018,3 43
15.08.2018 09:00:00 18,8 15,6 19,1 29 16 32 18 ZW 1017,8 48
15.08.2018 08:00:00 19,1 16,3 19,1 29 16 29 16 ZW 1017,6 44
15.08.2018 07:00:00 19,5 17,2 19,1 22 12 29 16 WZW 1017,0 42
15.08.2018 06:00:00 19,9 17,6 19,1 21 11 25 14 WZW 1016,8 49
15.08.2018 05:00:00 19,8 18,1 19,1 24 13 32 18 ZW 1016,9 37
15.08.2018 04:00:00 19,8 18,3 19,1 34 18 32 18 ZW 1016,9 28
15.08.2018 03:00:00 19,7 17,9 19,1 31 17 32 18 ZZW 1017,0 30
15.08.2018 02:00:00 19,7 18,0 19,2 31 17 36 19 ZZW 1017,3 30
15.08.2018 01:00:00 19,9 17,5 19,2 31 17 32 18 ZZW 1017,2 39
15.08.2018 00:00:00 20,0 17,1 19,2 29 16 32 18 ZZW 1017,3 43
14.08.2018 23:00:00 19,7 16,5 19,1 28 15 32 18 ZZW 1017,3 49
14.08.2018 22:00:00 19,6 15,4 19,1 28 15 32 18 ZZW 1017,6 50
14.08.2018 21:00:00 19,4 15,3 19,1 24 13 32 18 ZZW 1017,3 50
14.08.2018 20:00:00 19,5 13,9 19,1 28 15 32 18 WZW 1017,0 50
14.08.2018 19:00:00 19,4 14,2 19,1 34 18 36 19 WZW 1017,0 50
14.08.2018 18:00:00 19,3 13,6 19,1 31 17 36 19 WZW 1016,8 50
14.08.2018 17:00:00 18,9 14,6 19,1 28 15 29 16 WZW 1016,9 50
14.08.2018 16:00:00 18,6 14,6 19,1 26 14 29 16 ZW 1016,6 50
14.08.2018 15:00:00 18,7 15,1 19,1 28 15 29 16 WZW 1016,7 44
14.08.2018 14:00:00 18,9 15,4 19,1 24 13 25 14 W 1016,1 37
14.08.2018 13:00:00 18,5 15,9 19,1 22 12 25 14 W 1015,5 33
14.08.2018 12:00:00 18,7 16,3 19,1 24 13 25 14 W 1015,2 36
14.08.2018 11:00:00 18,2 16,4 19,1 16 9 22 12 NW 1014,6 50
14.08.2018 10:00:00 19,2 15,7 19,1 18 10 25 14 WNW 1014,1 48
14.08.2018 09:00:00 18,9 15,3 19,1 24 13 29 16 WNW 1013,6 50
14.08.2018 08:00:00 18,8 14,9 19,1 29 16 36 19 WNW 1012,8 47
14.08.2018 07:00:00 18,3 15,0 19,1 35 19 40 21 WNW 1012,1 50
14.08.2018 06:00:00 18,4 14,5 19,1 37 20 40 21 WNW 1011,5 50
14.08.2018 05:00:00 18,4 15,4 19,1 35 19 40 21 WNW 1011,0 50
14.08.2018 04:00:00 18,4 16,0 19,1 37 20 40 21 WNW 1010,4 50
14.08.2018 03:00:00 18,9 16,6 - 31 17 32 18 WNW 1009,9 39
14.08.2018 02:00:00 19,1 16,3 19,1 28 15 32 18 W 1009,6 47
14.08.2018 01:00:00 19,2 16,8 19,1 26 14 29 16 W 1009,2 50
14.08.2018 00:00:00 19,0 16,6 19,1 26 14 29 16 W 1008,8 48
13.08.2018 23:00:00 19,2 16,1 19,1 26 14 29 16 W 1008,2 50
13.08.2018 22:00:00 19,1 16,3 19,1 26 14 29 16 WZW 1008,0 50
13.08.2018 21:00:00 19,4 16,8 19,1 28 15 29 16 WZW 1007,7 48
13.08.2018 20:00:00 18,7 15,4 19,1 34 18 40 21 WZW 1007,1 21
13.08.2018 19:00:00 19,1 16,5 19,0 29 16 32 18 WZW 1006,9 44
13.08.2018 18:00:00 19,2 15,4 19,1 26 14 29 16 WZW 1006,7 49
13.08.2018 17:00:00 18,9 15,0 19,1 24 13 25 14 WZW 1006,5 49
13.08.2018 16:00:00 18,9 15,9 19,1 21 11 25 14 W 1006,3 49
13.08.2018 15:00:00 19,2 15,6 19,1 21 11 25 14 W 1006,2 50
13.08.2018 14:00:00 18,2 15,8 19,1 21 11 25 14 W 1006,1 50
13.08.2018 13:00:00 18,3 16,5 19,1 18 10 22 12 W 1005,5 47
13.08.2018 12:00:00 18,0 16,5 19,1 21 11 22 12 W 1005,4 41
13.08.2018 11:00:00 17,9 16,7 19,1 26 14 43 23 ZW 1005,5 9
13.08.2018 10:00:00 18,5 16,9 19,1 22 12 32 18 ZZW 1005,4 35
13.08.2018 09:00:00 18,8 16,7 - 28 15 32 18 Z 1005,1 33
13.08.2018 08:00:00 20,1 16,3 19,0 16 9 22 12 Z 1005,2 48
13.08.2018 07:00:00 20,2 15,6 19,1 13 7 14 8 Z 1005,2 50
13.08.2018 06:00:00 20,2 15,5 19,1 9 5 11 6 ZZO 1005,1 48
13.08.2018 05:00:00 20,1 16,0 19,1 8 4 7 4 Z 1005,6 50
13.08.2018 04:00:00 20,3 14,9 19,1 8 4 11 6 ZZO 1006,1 50
13.08.2018 03:00:00 20,3 14,4 19,1 9 5 14 8 ZZO 1006,9 50
13.08.2018 02:00:00 20,5 15,9 19,1 13 7 14 8 O 1007,3 -
13.08.2018 01:00:00 20,5 14,9 19,1 11 6 11 6 O 1007,9 -
13.08.2018 00:00:00 20,9 12,1 19,1 5 3 7 4 OZO 1008,3 -
12.08.2018 23:00:00 20,6 15,4 19,1 8 4 7 4 ONO 1008,5 -
12.08.2018 22:00:00 20,9 13,0 19,1 4 2 4 2 O 1009,0 -
12.08.2018 21:00:00 20,9 13,5 19,1 2 1 7 4 - 1009,1 -
12.08.2018 20:00:00 21,1 14,4 19,1 2 1 11 6 - 1009,3 -
12.08.2018 19:00:00 21,3 16,0 19,1 4 2 14 8 ZW 1009,8 -
12.08.2018 18:00:00 21,3 16,0 19,1 11 6 18 10 ZZO 1010,4 -
12.08.2018 17:00:00 21,5 16,0 19,1 18 10 25 14 Z 1010,9 -
12.08.2018 16:00:00 21,6 15,6 19,1 24 13 25 14 Z 1011,5 -
12.08.2018 15:00:00 21,3 15,6 19,0 28 15 32 18 Z 1012,3 -
12.08.2018 14:00:00 21,1 15,2 19,1 29 16 40 21 Z 1012,7 -
12.08.2018 13:00:00 20,8 14,1 19,0 37 20 47 25 Z 1013,1 -
12.08.2018 12:00:00 20,3 13,6 - 41 22 43 23 Z 1013,4 -
12.08.2018 11:00:00 20,2 13,8 - 42 23 47 25 Z 1013,7 -
12.08.2018 10:00:00 20,1 13,8 19,1 44 24 50 27 Z 1014,1 -
12.08.2018 09:00:00 20,1 12,8 19,1 44 24 50 27 Z 1014,2 -
12.08.2018 08:00:00 19,8 13,8 19,0 42 23 47 25 Z 1014,6 -
12.08.2018 07:00:00 19,9 12,5 19,0 41 22 43 23 Z 1015,0 -
12.08.2018 06:00:00 19,7 14,2 19,0 37 20 40 21 Z 1015,3 -
12.08.2018 05:00:00 19,4 13,5 19,1 31 17 36 19 Z 1016,1 -
12.08.2018 04:00:00 19,0 14,2 19,1 26 14 29 16 Z 1017,1 -
12.08.2018 03:00:00 18,6 13,2 19,1 28 15 32 18 Z 1018,1 -
12.08.2018 02:00:00 19,1 13,3 19,1 29 16 32 18 Z 1018,7 -
12.08.2018 01:00:00 18,9 12,2 19,0 26 14 29 16 Z 1019,3 -
12.08.2018 00:00:00 18,7 9,7 19,1 24 13 29 16 Z 1019,8 -
11.08.2018 23:00:00 18,6 7,6 19,1 21 11 25 14 Z 1020,4 -
11.08.2018 22:00:00 18,2 8,0 19,1 15 8 18 10 Z 1020,9 -
11.08.2018 21:00:00 17,8 7,5 19,1 13 7 14 8 Z 1021,2 -
11.08.2018 20:00:00 17,5 8,1 19,0 13 7 22 12 ZZW 1021,6 -
11.08.2018 19:00:00 17,4 8,3 19,0 13 7 18 10 ZW 1022,1 -
11.08.2018 18:00:00 17,3 8,4 19,0 22 12 25 14 ZW 1022,4 -
11.08.2018 17:00:00 16,9 9,4 19,0 22 12 29 16 ZW 1022,8 -
11.08.2018 16:00:00 17,1 9,7 19,1 24 13 32 18 ZW 1023,2 -
11.08.2018 15:00:00 16,7 9,2 19,1 24 13 29 16 WZW 1023,2 -
11.08.2018 14:00:00 16,8 9,4 - 24 13 29 16 WZW 1023,4 -
11.08.2018 13:00:00 16,7 9,5 19,0 26 14 29 16 W 1023,2 -

tt = temperatuur
td = dauwpunt
tw = water temperatuur
ff = windsnelheid
fx = windstoten
dd = windrichting
ppp = luchtdruk
vv = zicht

Weerstations in de omgeving